| time (UTC) | temp F | wind direction | speed knots | gust knots | rain 1hr in | rain 24hr in | rain mn in | humidity % | barometer mb |
| 20260505124445 | 54 | 150 | 0.0 | 2.6 | 0.00 | 0.00 | 0.00 | 53 | 1012.9 |
| 20260505122942 | 54 | 145 | 0.9 | 3.5 | 0.00 | 0.00 | 0.00 | 52 | 1012.8 |
| 20260505121442 | 54 | 149 | 0.9 | 4.3 | 0.00 | 0.00 | 0.00 | 51 | 1012.5 |
| 20260505115942 | 55 | 96 | 0.9 | 4.3 | 0.00 | 0.00 | 0.00 | 50 | 1012.3 |
| 20260505114443 | 55 | 81 | 1.7 | 4.3 | 0.00 | 0.00 | 0.00 | 50 | 1012.2 |
| 20260505112942 | 55 | 118 | 0.9 | 5.2 | 0.00 | 0.00 | 0.00 | 51 | 1012.1 |
| 20260505111444 | 54 | 272 | 0.0 | 1.7 | 0.00 | 0.00 | 0.00 | 55 | 1012.0 |
| 20260505101446 | 56 | 133 | 1.7 | 3.5 | 0.00 | 0.00 | 0.00 | 51 | 1011.7 |
| 20260505095944 | 56 | 280 | 0.9 | 2.6 | 0.00 | 0.00 | 0.00 | 54 | 1011.5 |
| 20260505094442 | 55 | 63 | 0.9 | 4.3 | 0.00 | 0.00 | 0.00 | 54 | 1011.4 |
| 20260505092942 | 52 | 97 | 0.0 | 1.7 | 0.00 | 0.00 | 0.00 | 63 | 1011.3 |
| 20260505091443 | 50 | 256 | 0.0 | 0.9 | 0.00 | 0.00 | 0.00 | 69 | 1011.3 |
| 20260505085944 | 50 | 153 | 0.0 | 0.0 | 0.00 | 0.00 | 0.00 | 70 | 1011.1 |
| 20260505084444 | 51 | 135 | 0.0 | 0.9 | 0.00 | 0.00 | 0.00 | 70 | 1011.0 |
| 20260505082942 | 51 | 192 | 0.0 | 0.9 | 0.00 | 0.00 | 0.00 | 71 | 1011.0 |
| 20260505081443 | 50 | 200 | 0.0 | 0.9 | 0.00 | 0.00 | 0.00 | 71 | 1010.9 |
| 20260505075945 | 50 | 316 | 0.0 | 2.6 | 0.00 | 0.00 | 0.00 | 71 | 1010.8 |
| 20260505074443 | 50 | 137 | 0.0 | 0.9 | 0.00 | 0.00 | 0.00 | 70 | 1010.6 |
| 20260505072943 | 51 | 226 | 0.0 | 0.9 | 0.00 | 0.00 | 0.00 | 68 | 1010.5 |
| 20260505071443 | 52 | 148 | 0.0 | 0.9 | 0.00 | 0.00 | 0.00 | 69 | 1010.4 |
| 20260505065943 | 52 | 245 | 0.0 | 2.6 | 0.00 | 0.00 | 0.00 | 68 | 1010.1 |
| 20260505064443 | 52 | 167 | 0.0 | 0.9 | 0.00 | 0.00 | 0.00 | 69 | 1009.9 |
| 20260505062943 | 53 | 159 | 0.0 | 0.9 | 0.00 | 0.00 | 0.00 | 69 | 1009.8 |
| 20260505061447 | 53 | 167 | 0.9 | 0.9 | 0.00 | 0.00 | 0.00 | 67 | 1009.8 |
| 20260505055943 | 53 | 153 | 0.0 | 0.0 | 0.00 | 0.00 | 0.00 | 67 | 1009.8 |
| 20260505054443 | 54 | 143 | 0.0 | 0.9 | 0.00 | 0.00 | 0.00 | 65 | 1009.7 |
| 20260505052944 | 55 | 146 | 0.0 | 0.0 | 0.00 | 0.00 | 0.00 | 64 | 1009.6 |
| 20260505051446 | 56 | 146 | 0.0 | 0.0 | 0.00 | 0.00 | 0.00 | 62 | 1009.5 |
| 20260505041447 | 62 | 180 | 0.0 | 1.7 | 0.00 | 0.00 | 0.00 | 48 | 1009.0 |
| 20260505035946 | 63 | 209 | 0.0 | 1.7 | 0.00 | 0.00 | 0.00 | 44 | 1008.9 |
| 20260505034444 | 65 | 134 | 0.0 | 0.0 | 0.00 | 0.00 | 0.00 | 40 | 1008.8 |
| 20260505032943 | 68 | 134 | 0.0 | 0.9 | 0.00 | 0.00 | 0.00 | 37 | 1008.5 |
| 20260505031445 | 70 | 72 | 0.9 | 2.6 | 0.00 | 0.00 | 0.00 | 32 | 1008.4 |
| 20260505025943 | 71 | 124 | 0.9 | 6.1 | 0.00 | 0.00 | 0.00 | 31 | 1008.1 |
| 20260505024444 | 72 | 40 | 0.9 | 5.2 | 0.00 | 0.00 | 0.00 | 30 | 1008.1 |
| 20260505022944 | 73 | 105 | 1.7 | 5.2 | 0.00 | 0.00 | 0.00 | 28 | 1008.1 |
| 20260505021444 | 74 | 127 | 2.6 | 7.8 | 0.00 | 0.00 | 0.00 | 27 | 1008.1 |
| 20260505015946 | 75 | 118 | 2.6 | 7.0 | 0.00 | 0.00 | 0.00 | 27 | 1008.0 |
| 20260505014443 | 75 | 46 | 3.5 | 10.4 | 0.00 | 0.00 | 0.00 | 26 | 1007.9 |
| 20260505012944 | 75 | 110 | 1.7 | 8.7 | 0.00 | 0.00 | 0.00 | 26 | 1008.1 |
| 20260505011446 | 76 | 75 | 2.6 | 9.6 | 0.00 | 0.00 | 0.00 | 26 | 1008.2 |
| 20260505005945 | 76 | 79 | 3.5 | 8.7 | 0.00 | 0.00 | 0.00 | 27 | 1008.0 |
| 20260505004445 | 76 | 84 | 4.3 | 10.4 | 0.00 | 0.00 | 0.00 | 26 | 1008.1 |
| 20260505002944 | 77 | 125 | 4.3 | 12.2 | 0.00 | 0.00 | 0.00 | 26 | 1008.1 |
| 20260505001446 | 77 | 193 | 2.6 | 6.1 | 0.00 | 0.00 | 0.00 | 27 | 1008.1 |
| 20260504235946 | 78 | 23 | 3.5 | 7.0 | 0.00 | 0.00 | 0.00 | 26 | 1008.1 |
| 20260504234445 | 77 | 115 | 0.9 | 7.8 | 0.00 | 0.00 | 0.00 | 27 | 1008.1 |
| 20260504232944 | 77 | 212 | 2.6 | 7.8 | 0.00 | 0.00 | 0.00 | 26 | 1008.0 |
| 20260504231444 | 78 | 213 | 1.7 | 7.0 | 0.00 | 0.00 | 0.00 | 25 | 1008.0 |
| 20260504225945 | 79 | 66 | 1.7 | 4.3 | 0.00 | 0.00 | 0.00 | 26 | 1008.2 |
| 20260504224445 | 77 | 113 | 2.6 | 10.4 | 0.00 | 0.00 | 0.00 | 27 | 1008.3 |
| 20260504222946 | 77 | 44 | 4.3 | 10.4 | 0.00 | 0.00 | 0.00 | 27 | 1008.5 |
| 20260504221443 | 79 | 114 | 3.5 | 8.7 | 0.00 | 0.00 | 0.00 | 26 | 1008.3 |
| 20260504215945 | 78 | 58 | 1.7 | 4.3 | 0.00 | 0.00 | 0.00 | 28 | 1008.5 |
| 20260504214445 | 78 | 58 | 2.6 | 7.0 | 0.00 | 0.00 | 0.00 | 27 | 1008.5 |
| 20260504212947 | 78 | 43 | 2.6 | 5.2 | 0.00 | 0.00 | 0.00 | 26 | 1008.7 |
| 20260504211446 | 78 | 35 | 2.6 | 6.1 | 0.00 | 0.00 | 0.00 | 28 | 1008.9 |
| 20260504205946 | 77 | 47 | 1.7 | 6.1 | 0.00 | 0.00 | 0.00 | 29 | 1008.8 |
| 20260504204445 | 77 | 137 | 1.7 | 9.6 | 0.00 | 0.00 | 0.00 | 28 | 1008.9 |
| 20260504202945 | 77 | 130 | 2.6 | 7.0 | 0.00 | 0.00 | 0.00 | 27 | 1008.9 |
| 20260504201446 | 77 | 83 | 1.7 | 7.0 | 0.00 | 0.00 | 0.00 | 29 | 1009.0 |
| 20260504195946 | 76 | 143 | 1.7 | 6.1 | 0.00 | 0.00 | 0.00 | 29 | 1009.0 |
| 20260504194445 | 76 | 12 | 2.6 | 8.7 | 0.00 | 0.00 | 0.00 | 31 | 1009.0 |
| 20260504192947 | 74 | 58 | 3.5 | 8.7 | 0.00 | 0.00 | 0.00 | 32 | 1009.1 |
| 20260504191447 | 75 | 148 | 2.6 | 6.1 | 0.00 | 0.00 | 0.00 | 32 | 1009.4 |
| 20260504185947 | 74 | 120 | 3.5 | 7.8 | 0.00 | 0.00 | 0.00 | 32 | 1009.5 |
| 20260504184446 | 74 | 42 | 2.6 | 5.2 | 0.00 | 0.00 | 0.00 | 33 | 1009.7 |
| 20260504182944 | 73 | 50 | 3.5 | 8.7 | 0.00 | 0.00 | 0.00 | 32 | 1009.6 |
| 20260504181446 | 72 | 146 | 2.6 | 8.7 | 0.00 | 0.00 | 0.00 | 36 | 1009.6 |
| 20260504175948 | 71 | 58 | 2.6 | 9.6 | 0.00 | 0.00 | 0.00 | 35 | 1009.7 |
| 20260504174448 | 71 | 351 | 1.7 | 6.1 | 0.00 | 0.00 | 0.00 | 36 | 1009.6 |
| 20260504172945 | 70 | 49 | 1.7 | 6.1 | 0.00 | 0.00 | 0.00 | 37 | 1009.7 |
| 20260504171446 | 69 | 47 | 2.6 | 7.8 | 0.00 | 0.00 | 0.00 | 42 | 1009.7 |